| time (UTC) | temp F | wind direction | speed MPH | gust MPH | rain 1hr in | rain 24hr in | rain mn in | humidity % | barometer mb |
| 20260905154031 | 87 | 40 | 2.0 | 4.0 | 0.00 | 0.05 | 0.05 | 83 | 1015.7 |
| 20260905153040 | 88 | 28 | 3.0 | 5.0 | 0.00 | 0.05 | 0.05 | 81 | 1015.7 |
| 20260905152029 | 87 | 58 | 1.0 | 5.0 | 0.00 | 0.05 | 0.05 | 84 | 1015.7 |
| 20260905151037 | 86 | 68 | 1.0 | 3.0 | 0.00 | 0.05 | 0.05 | 85 | 1015.6 |
| 20260905150025 | 85 | 28 | 2.0 | 3.0 | 0.00 | 0.05 | 0.05 | 88 | 1015.5 |
| 20260905145033 | 84 | 354 | 2.0 | 4.0 | 0.00 | 0.05 | 0.05 | 89 | 1015.6 |
| 20260905144023 | 84 | 78 | 1.0 | 3.0 | 0.00 | 0.05 | 0.05 | 93 | 1015.5 |
| 20260905143030 | 82 | 0.0 | 0.0 | 0.00 | 0.05 | 0.05 | 94 | 1015.5 | |
| 20260905142020 | 82 | 0.0 | 0.0 | 0.00 | 0.05 | 0.05 | 96 | 1015.6 | |
| 20260905141029 | 81 | 0.0 | 0.0 | 0.00 | 0.05 | 0.05 | 96 | 1015.4 | |
| 20260905140036 | 80 | 0.0 | 0.0 | 0.05 | 0.05 | 0.05 | 96 | 1015.4 | |
| 20260905135028 | 79 | 0.0 | 0.0 | 0.05 | 0.05 | 0.05 | 96 | 1015.4 | |
| 20260905134034 | 79 | 0.0 | 0.0 | 0.05 | 0.05 | 0.05 | 95 | 1015.5 | |
| 20260905133023 | 78 | 0.0 | 0.0 | 0.05 | 0.05 | 0.05 | 94 | 1015.5 | |
| 20260905132031 | 78 | 167 | 1.0 | 3.0 | 0.05 | 0.05 | 0.05 | 94 | 1015.5 |
| 20260905131021 | 79 | 0.0 | 0.0 | 0.05 | 0.05 | 0.05 | 93 | 1015.5 | |
| 20260905130029 | 79 | 57 | 2.0 | 4.0 | 0.00 | 0.00 | 0.00 | 91 | 1015.6 |
| 20260905125037 | 79 | 0.0 | 0.0 | 0.00 | 0.00 | 0.00 | 91 | 1015.5 | |
| 20260905124026 | 80 | 0.0 | 0.0 | 0.00 | 0.00 | 0.00 | 94 | 1015.4 | |
| 20260905123034 | 80 | 0.0 | 0.0 | 0.00 | 0.00 | 0.00 | 94 | 1015.3 | |
| 20260905122023 | 79 | 0.0 | 0.0 | 0.00 | 0.00 | 0.00 | 94 | 1015.3 | |
| 20260905121032 | 79 | 0.0 | 0.0 | 0.00 | 0.01 | 0.00 | 95 | 1015.3 | |
| 20260905120022 | 78 | 0.0 | 0.0 | 0.00 | 0.02 | 0.00 | 95 | 1015.3 | |
| 20260905115029 | 78 | 0.0 | 0.0 | 0.00 | 0.02 | 0.00 | 95 | 1015.2 | |
| 20260905114038 | 78 | 0.0 | 0.0 | 0.00 | 0.05 | 0.00 | 95 | 1015.1 | |
| 20260905113027 | 78 | 0.0 | 0.0 | 0.00 | 0.12 | 0.00 | 95 | 1014.9 | |
| 20260905112034 | 78 | 0.0 | 0.0 | 0.00 | 0.12 | 0.00 | 95 | 1014.6 | |
| 20260905111025 | 78 | 0.0 | 0.0 | 0.00 | 0.12 | 0.00 | 95 | 1014.4 | |
| 20260905110032 | 78 | 0.0 | 0.0 | 0.00 | 0.12 | 0.00 | 94 | 1014.3 | |
| 20260905105022 | 78 | 0.0 | 0.0 | 0.00 | 0.12 | 0.00 | 94 | 1014.3 | |
| 20260905104030 | 78 | 0.0 | 0.0 | 0.00 | 0.12 | 0.00 | 94 | 1014.3 | |
| 20260905103039 | 78 | 0.0 | 0.0 | 0.00 | 0.12 | 0.00 | 94 | 1014.2 | |
| 20260905102027 | 78 | 0.0 | 0.0 | 0.00 | 0.12 | 0.00 | 94 | 1014.3 | |
| 20260905101035 | 78 | 0.0 | 0.0 | 0.00 | 0.12 | 0.00 | 93 | 1014.3 | |
| 20260905100025 | 78 | 0.0 | 0.0 | 0.00 | 0.12 | 0.00 | 93 | 1014.5 | |
| 20260905095032 | 78 | 0.0 | 0.0 | 0.00 | 0.12 | 0.00 | 93 | 1014.6 | |
| 20260905094022 | 78 | 0.0 | 0.0 | 0.00 | 0.12 | 0.00 | 93 | 1014.5 | |
| 20260905093030 | 78 | 0.0 | 0.0 | 0.00 | 0.12 | 0.00 | 93 | 1014.6 | |
| 20260905092019 | 78 | 0.0 | 0.0 | 0.00 | 0.12 | 0.00 | 93 | 1014.5 | |
| 20260905091027 | 78 | 0.0 | 0.0 | 0.00 | 0.12 | 0.00 | 93 | 1014.5 | |
| 20260905090054 | 78 | 0.0 | 0.0 | 0.00 | 0.12 | 0.00 | 93 | 1014.6 | |
| 20260905085025 | 79 | 0.0 | 0.0 | 0.00 | 0.12 | 0.00 | 93 | 1014.4 | |
| 20260905084033 | 79 | 0.0 | 0.0 | 0.00 | 0.12 | 0.00 | 93 | 1014.4 | |
| 20260905083022 | 79 | 0.0 | 0.0 | 0.00 | 0.12 | 0.00 | 93 | 1014.4 | |
| 20260905082033 | 79 | 0.0 | 0.0 | 0.00 | 0.12 | 0.00 | 93 | 1014.2 | |
| 20260905081020 | 79 | 0.0 | 0.0 | 0.00 | 0.12 | 0.00 | 93 | 1014.1 | |
| 20260905080028 | 79 | 0.0 | 0.0 | 0.00 | 0.12 | 0.00 | 93 | 1014.1 | |
| 20260905075036 | 79 | 0.0 | 0.0 | 0.00 | 0.12 | 0.00 | 94 | 1014.1 | |
| 20260905074026 | 79 | 0.0 | 0.0 | 0.00 | 0.12 | 0.00 | 94 | 1014.2 | |
| 20260905073034 | 79 | 0.0 | 0.0 | 0.00 | 0.12 | 0.00 | 94 | 1014.3 | |
| 20260905072023 | 79 | 0.0 | 0.0 | 0.00 | 0.12 | 0.00 | 94 | 1014.3 | |
| 20260905071031 | 79 | 0.0 | 0.0 | 0.00 | 0.12 | 0.00 | 94 | 1014.2 | |
| 20260905070020 | 79 | 0.0 | 0.0 | 0.00 | 0.12 | 0.00 | 93 | 1014.2 | |
| 20260905065031 | 80 | 0.0 | 0.0 | 0.00 | 0.12 | 0.00 | 93 | 1014.1 | |
| 20260905064057 | 80 | 0.0 | 0.0 | 0.00 | 0.12 | 0.00 | 93 | 1014.2 | |
| 20260905063106 | 80 | 0.0 | 0.0 | 0.00 | 0.12 | 0.00 | 93 | 1014.1 | |
| 20260905062034 | 80 | 0.0 | 0.0 | 0.00 | 0.12 | 0.00 | 93 | 1014.2 | |
| 20260905061024 | 80 | 0.0 | 0.0 | 0.00 | 0.12 | 0.00 | 92 | 1014.2 | |
| 20260905060032 | 80 | 0.0 | 0.0 | 0.00 | 0.12 | 0.00 | 92 | 1014.2 | |
| 20260905055021 | 81 | 0.0 | 0.0 | 0.00 | 0.12 | 0.00 | 91 | 1014.4 | |
| 20260905054029 | 81 | 0.0 | 0.0 | 0.00 | 0.12 | 0.00 | 91 | 1014.4 | |
| 20260905053037 | 80 | 0.0 | 0.0 | 0.00 | 0.12 | 0.00 | 90 | 1014.4 | |
| 20260905052027 | 80 | 0.0 | 0.0 | 0.00 | 0.12 | 0.00 | 90 | 1014.6 | |
| 20260905051035 | 80 | 0.0 | 0.0 | 0.00 | 0.12 | 0.00 | 90 | 1014.6 | |
| 20260905050025 | 80 | 0.0 | 0.0 | 0.00 | 0.12 | 0.00 | 90 | 1014.6 | |
| 20260905045052 | 80 | 0.0 | 0.0 | 0.00 | 0.12 | 0.12 | 89 | 1014.5 | |
| 20260905044102 | 81 | 0.0 | 0.0 | 0.00 | 0.12 | 0.12 | 89 | 1014.6 | |
| 20260905043029 | 81 | 0.0 | 0.0 | 0.00 | 0.12 | 0.12 | 88 | 1014.6 | |
| 20260905042019 | 81 | 0.0 | 0.0 | 0.00 | 0.12 | 0.12 | 87 | 1014.6 | |
| 20260905041027 | 81 | 0.0 | 0.0 | 0.00 | 0.12 | 0.12 | 86 | 1014.8 | |
| 20260905040053 | 82 | 0.0 | 0.0 | 0.00 | 0.12 | 0.12 | 86 | 1015.0 | |
| 20260905035025 | 81 | 0.0 | 0.0 | 0.00 | 0.12 | 0.12 | 88 | 1015.0 | |
| 20260905034053 | 81 | 0.0 | 0.0 | 0.00 | 0.12 | 0.12 | 87 | 1015.0 | |
| 20260905033022 | 81 | 0.0 | 0.0 | 0.00 | 0.12 | 0.12 | 87 | 1015.2 | |
| 20260905032052 | 81 | 0.0 | 0.0 | 0.00 | 0.12 | 0.12 | 86 | 1015.2 | |
| 20260905031019 | 81 | 0.0 | 0.0 | 0.00 | 0.12 | 0.12 | 86 | 1015.2 | |
| 20260905030027 | 81 | 0.0 | 0.0 | 0.00 | 0.12 | 0.12 | 86 | 1015.4 | |
| 20260905025116 | 82 | 0.0 | 0.0 | 0.00 | 0.12 | 0.12 | 85 | 1015.4 | |
| 20260905024025 | 82 | 0.0 | 0.0 | 0.00 | 0.12 | 0.12 | 84 | 1015.4 | |
| 20260905023053 | 82 | 0.0 | 0.0 | 0.00 | 0.12 | 0.12 | 84 | 1015.3 | |
| 20260905022023 | 82 | 0.0 | 0.0 | 0.00 | 0.12 | 0.12 | 83 | 1015.3 | |
| 20260905021030 | 82 | 0.0 | 0.0 | 0.00 | 0.12 | 0.12 | 84 | 1015.1 | |
| 20260905020020 | 82 | 0.0 | 0.0 | 0.00 | 0.12 | 0.12 | 84 | 1015.1 | |
| 20260905015028 | 82 | 96 | 1.0 | 4.0 | 0.00 | 0.12 | 0.12 | 84 | 1015.1 |
| 20260905014056 | 83 | 0.0 | 0.0 | 0.00 | 0.12 | 0.12 | 84 | 1015.0 | |
| 20260905013028 | 83 | 0.0 | 0.0 | 0.00 | 0.12 | 0.12 | 84 | 1015.0 | |
| 20260905012033 | 84 | 0.0 | 0.0 | 0.00 | 0.12 | 0.12 | 83 | 1014.9 | |
| 20260905011023 | 84 | 0.0 | 0.0 | 0.00 | 0.12 | 0.12 | 83 | 1014.9 | |
| 20260905010031 | 84 | 0.0 | 0.0 | 0.00 | 0.12 | 0.12 | 82 | 1014.9 | |
| 20260905005040 | 85 | 0.0 | 0.0 | 0.00 | 0.12 | 0.12 | 81 | 1014.9 | |
| 20260905004028 | 86 | 64 | 0.0 | 1.0 | 0.00 | 0.12 | 0.12 | 79 | 1014.8 |
| 20260905003057 | 86 | 0.0 | 0.0 | 0.00 | 0.12 | 0.12 | 77 | 1014.7 | |
| 20260905002026 | 87 | 90 | 0.0 | 2.0 | 0.00 | 0.12 | 0.12 | 75 | 1014.9 |
| 20260905001034 | 88 | 0.0 | 0.0 | 0.00 | 0.12 | 0.12 | 73 | 1014.9 | |
| 20260905000023 | 90 | 0.0 | 0.0 | 0.00 | 0.12 | 0.12 | 70 | 1014.9 | |
| 20260904235032 | 92 | 49 | 1.0 | 2.0 | 0.00 | 0.12 | 0.12 | 68 | 1014.9 |
| 20260904234041 | 93 | 27 | 1.0 | 4.0 | 0.00 | 0.12 | 0.12 | 66 | 1014.6 |
| 20260904233029 | 93 | 12 | 1.0 | 4.0 | 0.00 | 0.12 | 0.12 | 68 | 1014.5 |
| 20260904232037 | 92 | 334 | 2.0 | 4.0 | 0.00 | 0.12 | 0.12 | 69 | 1014.6 |
| 20260904231026 | 91 | 2 | 1.0 | 3.0 | 0.00 | 0.12 | 0.12 | 70 | 1014.6 |
| 20260904230034 | 90 | 35 | 1.0 | 4.0 | 0.00 | 0.12 | 0.12 | 72 | 1014.7 |
| 20260904225024 | 90 | 40 | 2.0 | 3.0 | 0.00 | 0.12 | 0.12 | 72 | 1014.5 |
| 20260904224033 | 92 | 56 | 1.0 | 4.0 | 0.00 | 0.12 | 0.12 | 69 | 1014.4 |
| 20260904223021 | 90 | 20 | 2.0 | 3.0 | 0.00 | 0.12 | 0.12 | 72 | 1014.6 |
| 20260904222029 | 90 | 17 | 2.0 | 4.0 | 0.00 | 0.12 | 0.12 | 72 | 1014.5 |
| 20260904221037 | 89 | 22 | 3.0 | 5.0 | 0.00 | 0.12 | 0.12 | 74 | 1014.3 |
| 20260904220026 | 88 | 338 | 3.0 | 5.0 | 0.00 | 0.12 | 0.12 | 77 | 1014.3 |
| 20260904215035 | 89 | 335 | 4.0 | 6.0 | 0.00 | 0.12 | 0.12 | 74 | 1014.6 |
| 20260904214024 | 89 | 15 | 3.0 | 6.0 | 0.00 | 0.12 | 0.12 | 74 | 1014.4 |
| 20260904213031 | 89 | 354 | 3.0 | 5.0 | 0.00 | 0.12 | 0.12 | 73 | 1014.5 |
| 20260904212021 | 89 | 20 | 3.0 | 4.0 | 0.00 | 0.12 | 0.12 | 74 | 1014.6 |
| 20260904211029 | 89 | 24 | 3.0 | 7.0 | 0.00 | 0.12 | 0.12 | 72 | 1014.6 |
| 20260904210037 | 89 | 352 | 3.0 | 4.0 | 0.00 | 0.12 | 0.12 | 71 | 1014.5 |
| 20260904205027 | 90 | 43 | 3.0 | 6.0 | 0.00 | 0.12 | 0.12 | 72 | 1014.5 |
| 20260904204034 | 90 | 332 | 4.0 | 6.0 | 0.00 | 0.12 | 0.12 | 71 | 1014.5 |
| 20260904203023 | 90 | 353 | 5.0 | 8.0 | 0.00 | 0.12 | 0.12 | 71 | 1014.6 |
| 20260904202031 | 90 | 30 | 3.0 | 5.0 | 0.00 | 0.12 | 0.12 | 73 | 1014.7 |
| 20260904201041 | 90 | 22 | 3.0 | 5.0 | 0.00 | 0.12 | 0.12 | 72 | 1014.8 |
| 20260904200029 | 90 | 9 | 3.0 | 5.0 | 0.00 | 0.12 | 0.12 | 72 | 1014.9 |
| 20260904195036 | 90 | 21 | 3.0 | 4.0 | 0.00 | 0.12 | 0.12 | 71 | 1015.0 |
| 20260904194026 | 90 | 93 | 3.0 | 4.0 | 0.00 | 0.12 | 0.12 | 71 | 1015.2 |
| 20260904193034 | 90 | 3 | 3.0 | 5.0 | 0.00 | 0.12 | 0.12 | 72 | 1015.3 |
| 20260904192043 | 89 | 360 | 3.0 | 5.0 | 0.00 | 0.12 | 0.12 | 75 | 1015.5 |
| 20260904191053 | 89 | 33 | 4.0 | 8.0 | 0.00 | 0.12 | 0.12 | 75 | 1015.6 |
| 20260904190023 | 89 | 0 | 3.0 | 7.0 | 0.00 | 0.12 | 0.12 | 76 | 1015.8 |
| 20260904185047 | 88 | 10 | 3.0 | 5.0 | 0.00 | 0.12 | 0.12 | 77 | 1016.1 |
| 20260904184057 | 87 | 46 | 3.0 | 7.0 | 0.00 | 0.12 | 0.12 | 78 | 1016.3 |
| 20260904183026 | 89 | 27 | 3.0 | 4.0 | 0.00 | 0.12 | 0.12 | 76 | 1016.4 |
| 20260904182034 | 88 | 350 | 3.0 | 6.0 | 0.00 | 0.12 | 0.12 | 76 | 1016.5 |
| 20260904181023 | 88 | 26 | 3.0 | 6.0 | 0.00 | 0.12 | 0.12 | 78 | 1016.5 |
| 20260904180031 | 88 | 4 | 3.0 | 6.0 | 0.00 | 0.12 | 0.12 | 77 | 1016.8 |
| 20260904175021 | 88 | 22 | 3.0 | 7.0 | 0.00 | 0.12 | 0.12 | 77 | 1016.8 |
| 20260904174029 | 86 | 21 | 2.0 | 4.0 | 0.00 | 0.12 | 0.12 | 80 | 1016.8 |
| 20260904173037 | 85 | 59 | 2.0 | 4.0 | 0.00 | 0.12 | 0.12 | 81 | 1016.8 |
| 20260904172026 | 85 | 28 | 2.0 | 5.0 | 0.00 | 0.12 | 0.12 | 82 | 1016.8 |
| 20260904171054 | 84 | 87 | 3.0 | 4.0 | 0.00 | 0.12 | 0.12 | 83 | 1016.7 |
| 20260904170024 | 83 | 33 | 2.0 | 3.0 | 0.00 | 0.12 | 0.12 | 85 | 1016.7 |
| 20260904165032 | 83 | 54 | 2.0 | 5.0 | 0.00 | 0.12 | 0.12 | 85 | 1017.0 |
| 20260904164021 | 83 | 27 | 2.0 | 3.0 | 0.00 | 0.12 | 0.12 | 86 | 1017.0 |
| 20260904163030 | 83 | 29 | 1.0 | 3.0 | 0.00 | 0.12 | 0.12 | 86 | 1017.2 |
| 20260904162019 | 84 | 310 | 1.0 | 3.0 | 0.00 | 0.12 | 0.12 | 86 | 1017.2 |
| 20260904161107 | 84 | 0 | 0.0 | 3.0 | 0.00 | 0.12 | 0.12 | 85 | 1017.3 |
| 20260904160035 | 84 | 338 | 1.0 | 6.0 | 0.00 | 0.12 | 0.12 | 85 | 1017.2 |
| 20260904155024 | 84 | 47 | 2.0 | 5.0 | 0.00 | 0.12 | 0.12 | 86 | 1017.2 |